This demonstration page uses our WeatherBlox Daily Observations layout. Learn more.

Left ArrowRight Arrow

Hourly Observations for August 19, 2019

Temp ( °F °C ) Dew Point ( °F °C ) Humidity (%) Winds ( mph kmh ) Pressure ( in mb ) Visibility ( mi km ) Precip ( " mm )
12:15 am 00:15 Clear with Nearby Thunderstorms 66 18.7 66 18.7 100 100 Calm 29.97 1015 10 16 0.00 0.00
12:35 am 00:35 Clear 65 18.3 65 18.3 100 100 Calm 29.97 1015 10 16 0.00 0.00
12:55 am 00:55 Clear 65 18.3 65 18.3 100 100 Calm 29.97 1015 10 16 0.00 0.00
1:15 am 01:15 Clear with Nearby Thunderstorms 64 18 64 18 100 100 Calm 29.98 1015 10 16 0.00 0.00
1:35 am 01:35 Partly Cloudy 64 18 64 18 100 100 Calm 29.97 1015 7 11 0.00 0.00
1:55 am 01:55 Mostly Cloudy 65 18.5 65 18.5 100 100 Calm 29.97 1015 7 11 0.00 0.00
2:15 am 02:15 Cloudy with Nearby Thunderstorms 66 18.7 66 18.7 100 100 Calm 29.97 1015 7 11 0.00 0.00
2:35 am 02:35 Mostly Cloudy 65 18.6 65 18.6 100 100 Calm 29.97 1015 7 11 0.00 0.00
2:55 am 02:55 Partly Cloudy 65 18.5 65 18.5 100 100 Calm 29.97 1015 7 11 0.00 0.00
3:15 am 03:15 Clear 65 18.6 65 18.6 100 100 Calm 29.97 1015 10 16 0.00 0.00
3:35 am 03:35 Clear 66 18.7 66 18.7 100 100 Calm 29.97 1015 7 11 0.00 0.00
3:55 am 03:55 Clear 66 18.7 66 18.7 100 100 Calm 29.96 1015 7 11 0.00 0.00
4:15 am 04:15 Clear with Mist and Fog 65 18.6 65 18.6 100 100 Calm 29.96 1015 5 8 0.00 0.00
4:35 am 04:35 Mostly Cloudy with Mist and Fog 66 18.7 66 18.7 100 100 Calm 29.96 1015 4 6 0.00 0.00
4:55 am 04:55 Mostly Cloudy with Mist and Fog 66 18.8 66 18.8 100 100 Calm 29.97 1015 5 8 0.00 0.00
5:15 am 05:15 Partly Cloudy with Mist and Fog 65 18.6 65 18.6 100 100 Calm 29.97 1015 5 8 0.00 0.00
5:30 am 05:30 Partly Cloudy 65 18.5 65 18.5 100 100 Calm 29.97 1015 7 11 0.00 0.00
5:55 am 05:55 Clear 65 18.2 65 18.2 100 100 Calm 29.97 1015 7 11 0.00 0.00
6:15 am 06:15 Partly Cloudy with Mist and Fog 64 18 64 18 100 100 Calm 29.98 1015 5 8 0.00 0.00
6:35 am 06:35 Mostly Cloudy with Mist and Fog 65 18.2 65 18.2 100 100 Calm 29.99 1016 5 8 0.00 0.00
6:55 am 06:55 Mostly Cloudy with Mist and Fog 65 18.2 65 18.2 100 100 Calm 30.00 1016 5 8 0.00 0.00
7:15 am 07:15 Mostly Cloudy with Mist and Fog 65 18.5 65 18.5 100 100 Calm 30.01 1016 5 8 0.00 0.00
7:35 am 07:35 Partly Cloudy with Mist and Fog 65 18.3 65 18.3 100 100 Calm 30.01 1016 5 8 0.00 0.00
7:55 am 07:55 Sunny with Mist and Fog 66 18.8 66 18.8 100 100 S 3 6 30.01 1016 4 6 0.00 0.00
8:15 am 08:15 Sunny 67 19.7 67 19.7 100 100 SSW 5 7 30.01 1016 10 16 0.00 0.00
8:35 am 08:35 Sunny 69 20.7 69 20.7 100 100 SSW 6 9 30.01 1016 10 16 0.00 0.00
8:55 am 08:55 Sunny 70 21.2 70 21.2 100 100 SSW 5 7 30.01 1016 10 16 0.00 0.00
9:15 am 09:15 Sunny 72 22.1 72 22.1 100 100 SSW 6 9 30.02 1017 10 16 0.00 0.00
9:35 am 09:35 Sunny 73 22.5 73 22.5 100 100 SW 6 9 30.02 1017 10 16 0.00 0.00
9:55 am 09:55 Sunny 73 22.8 73 22.8 100 100 SSW 6 9 30.02 1016 10 16 0.00 0.00
10:15 am 10:15 Sunny 74 23.4 74 23.3 99 99 SSW 5 7 30.02 1016 10 16 0.00 0.00
10:35 am 10:35 Sunny 75 24 75 23.7 98 98 Calm 30.02 1017 10 16 0.00 0.00
10:55 am 10:55 Mostly Cloudy 76 24.6 75 24.1 97 97 WSW 3 6 30.02 1017 10 16 0.00 0.00
11:15 am 11:15 Cloudy with Mist and Fog 77 24.8 75 24 95 95 Calm 30.02 1017 5 8 0.00 0.00
11:35 am 11:35 Partly Cloudy 78 25.3 75 24.1 93 93 NW 3 6 30.02 1017 10 16 0.00 0.00
11:55 am 11:55 Partly Cloudy 77 25.1 75 24.1 94 94 Calm 30.02 1017 7 11 0.00 0.00
12:15 pm 12:15 Mostly Cloudy 80 26.4 77 24.8 91 91 Calm 30.02 1016 10 16 0.00 0.00
12:35 pm 12:35 Cloudy 80 26.6 76 24.3 87 87 Calm 30.01 1016 7 11 0.00 0.00
12:55 pm 12:55 Mostly Cloudy 80 26.9 76 24.5 87 87 Calm 30.02 1017 7 11 0.00 0.00
1:15 pm 13:15 Mostly Cloudy with Mist and Fog 80 26.9 76 24.3 86 86 SSW 3 6 30.01 1016 5 8 0.00 0.00
1:35 pm 13:35 Mostly Cloudy 81 27.4 75 23.8 81 81 Calm 30.01 1016 10 16 0.00 0.00
1:55 pm 13:55 Mostly Cloudy 82 27.9 74 23.3 76 76 Calm 30.01 1016 10 16 0.00 0.00
2:15 pm 14:15 Partly Cloudy 83 28.5 75 24.1 77 77 Calm 30.01 1016 10 16 0.00 0.00
2:35 pm 14:35 Mostly Cloudy 84 28.8 74 23.2 72 72 Calm 30.01 1016 10 16 0.00 0.00
2:55 pm 14:55 Mostly Cloudy 83 28.4 75 24 77 77 Calm 30.01 1016 10 16 0.00 0.00
3:15 pm 15:15 Partly Cloudy 84 28.8 73 22.5 69 69 Calm 30.00 1016 10 16 0.00 0.00
3:35 pm 15:35 Partly Cloudy 84 29 74 23.1 71 71 Calm 30.00 1016 10 16 0.00 0.00
3:55 pm 15:55 Partly Cloudy 85 29.4 73 23 68 68 Calm 30.00 1016 10 16 0.00 0.00
4:15 pm 16:15 Sunny 85 29.3 72 22.4 66 66 Calm 29.99 1015 10 16 0.00 0.00
4:35 pm 16:35 Sunny 85 29.5 74 23.1 68 68 WSW 5 7 29.99 1015 10 16 0.00 0.00
4:55 pm 16:55 Partly Cloudy 85 29.6 73 22.8 67 67 SW 6 9 29.98 1015 10 16 0.00 0.00
5:15 pm 17:15 Partly Cloudy 85 29.3 74 23.6 71 71 SSW 3 6 29.98 1015 10 16 0.00 0.00
5:35 pm 17:35 Partly Cloudy 85 29.5 74 23.3 69 69 W 6 9 29.98 1015 10 16 0.00 0.00
5:55 pm 17:55 Sunny 85 29.4 73 22.7 67 67 W 5 7 29.98 1015 10 16 0.00 0.00
6:15 pm 18:15 Sunny 85 29.2 73 22.6 68 68 WNW 5 7 29.98 1015 10 16 0.00 0.00
6:35 pm 18:35 Sunny 84 29.1 74 23.1 70 70 W 7 11 29.98 1015 10 16 0.00 0.00
6:55 pm 18:55 Sunny 84 28.8 72 22.4 68 68 W 6 9 29.98 1015 10 16 0.00 0.00
7:15 pm 19:15 Sunny 83 28.5 73 22.9 72 72 WNW 3 6 29.98 1015 10 16 0.00 0.00
7:35 pm 19:35 Sunny 83 28.1 75 23.7 77 77 W 5 7 29.97 1015 10 16 0.00 0.00
7:55 pm 19:55 Sunny 82 27.5 75 23.7 80 80 Calm 29.97 1015 10 16 0.00 0.00
8:15 pm 20:15 Sunny 81 27 76 24.2 85 85 Calm 29.98 1015 10 16 0.00 0.00
8:35 pm 20:35 Sunny 76 24.7 76 24.7 100 100 Calm 29.99 1016 10 16 0.00 0.00
8:55 pm 20:55 Clear 76 24.4 76 24.4 100 100 Calm 29.99 1016 10 16 0.00 0.00
9:15 pm 21:15 Clear 74 23.6 74 23.6 100 100 Calm 30.00 1016 10 16 0.00 0.00
9:35 pm 21:35 Clear 73 22.9 73 22.9 100 100 Calm 30.02 1016 10 16 0.00 0.00
9:55 pm 21:55 Clear 73 22.5 73 22.5 100 100 Calm 30.02 1017 10 16 0.00 0.00
10:15 pm 22:15 Clear 72 22.1 72 22.1 100 100 Calm 30.02 1017 10 16 0.00 0.00
10:35 pm 22:35 Clear 72 22.1 72 22.1 100 100 Calm 30.02 1017 10 16 0.00 0.00
10:55 pm 22:55 Clear 71 21.5 71 21.5 100 100 Calm 30.03 1017 7 11 0.00 0.00
11:15 pm 23:15 Clear 71 21.4 71 21.4 100 100 Calm 30.03 1017 7 11 0.00 0.00
11:35 pm 23:35 Clear 71 21.6 71 21.6 100 100 Calm 30.03 1017 7 11 0.00 0.00
11:55 pm 23:55 Clear 70 21.3 70 21.3 100 100 Calm 30.04 1017 7 11 0.00 0.00

Powered by AerisWeather